Flag for Germany Weather past 2 weeks in Wunstorf, Lower Saxony, Germany

Now
68 °F

Mild.


Feels Like: 68 °F
Forecast: 63 / 75 °F
Wind: 6 mph from Northwest

Location: Wunstorf Airport

Current Time: Jul 30, 2014 at 1:21:48 AM

Latest Report: Jul 30, 2014 at 12:20 AM


Visibility: 2 mi

Pressure: 29.77 "Hg

Humidity: 94%

Dew point: 66 °F

Location of WunstorfLocation

Historic Weather in Wunstorf — Graph

°F

Wunstorf temperature yesterday

Maximum temperature yesterday: 82 °F (at 4:20 PM)
Minimum temperature yesterday: 66 °F (at 3:20 AM)
Average temperature yesterday: 72 °F

Past Weeks' High & Low Weather Summary

 TemperatureHumidityPressure
High90 °F (Jul 19, 2:20 PM)100% (Jul 16, 5:20 AM)30.18 "Hg (Jul 16, 5:20 AM)
Low-31 °F (Jul 25, 2:20 PM)31% (Jul 19, 2:20 PM)29.74 "Hg (Jul 29, 6:20 PM)
Average54 °F71%29.99 "Hg
* Reported Jul 14 11:20 PM — Jul 29 11:20 PM, Wunstorf, Weather by CustomWeather, © 2014

Note: Actual official high and low records may vary slightly from our data, if they occured in-between our weather recording intervals... More about our weather records

Advertising

Wunstorf weather history for previous 24 hours

 ConditionsComfort  
Time TempWeatherWind HumidityBarometerVisibility
11:20 PM
Jul 29
68 °FMild.5 mph94%29.80 "Hg2 mi
10:20 PM68 °FMild.5 mph100%29.80 "Hg2 mi
9:20 PM68 °FMild.7 mph100%29.77 "Hg1 mi
8:20 PM70 °FMild.10 mph88%29.77 "Hg2 mi
7:20 PM77 °FPartly sunny.7 mph69%29.74 "HgN/A
6:20 PM82 °FPartly sunny.7 mph51%29.74 "HgN/A
5:20 PM82 °FScattered clouds.6 mph51%29.77 "HgN/A
4:20 PM82 °FPartly sunny.7 mph51%29.77 "HgN/A
3:20 PM77 °FBroken clouds.3 mph65%29.80 "HgN/A
2:20 PM77 °FBroken clouds.3 mph61%29.83 "HgN/A
1:20 PM75 °FBroken clouds.1 mph65%29.83 "HgN/A
12:20 PM75 °FBroken clouds.5 mph65%29.83 "HgN/A
11:20 AM77 °FBroken clouds.5 mph65%29.83 "HgN/A
10:20 AM75 °FPartly sunny.6 mph69%29.86 "HgN/A
9:20 AM72 °FScattered clouds.7 mph78%29.83 "HgN/A
8:20 AM70 °FScattered clouds.6 mph83%29.83 "Hg5 mi
7:20 AM66 °FBroken clouds.5 mph88%29.83 "Hg4 mi
6:20 AM66 °FPassing clouds.3 mph88%29.83 "Hg4 mi
5:20 AM66 °FPassing clouds.1 mph88%29.83 "Hg4 mi
4:20 AM66 °FMild.2 mph88%29.83 "Hg2 mi
3:20 AM66 °FMild.3 mph94%29.86 "Hg2 mi
2:20 AM68 °FMild.6 mph88%29.86 "Hg2 mi
1:20 AM68 °FMild.5 mph88%29.86 "Hg2 mi
Weather by CustomWeather, © 2014

See weather overviewHow to use our weather pages